Погода в Пюсси

Эстония     59°21′47″N   27°02′40″E
темп.,
°C
ветер,
м/с
пор.,
м/с
влажн.,
%
обл.,
%
осадки,
мм/ч
давл.,
гПа
погр.,
м
24 сентября, пт
пт2400:00+6юв71591100 0.6 994901
03:00+6юв71592100 1.8 991885
06:00+5вюв61494100 1.5 991824
09:00+5вюв51294100 2.4 992770
12:00+6вюв41093100 0.1 994725
15:00+7вюв3892100 0.1 997612
18:00+7юв3793100 0.0 998523
21:00+7юв3895100 0.0 999534
25 сентября, сб
сб2500:00+7ююв3795100 0.0 999502
03:00+7ю3895100 0.1 998454
06:00+7ююз2799100 1.9 997340
09:00+8юз3798100 2.8 998357
12:00+9зюз2694100 0.2 999357
15:00+11зсз368393 0.3 1001788
18:00+10зсз4108094 0.1 1003659
21:00+9зсз3118740 0.2 1006481
26 сентября, вс
вс2600:00+7з412959 0.0 1008491
03:00+9зсз41185100 0.0 1010648
06:00+8сз41192100 0.1 1013494
09:00+9ссз5984100 0.1 1015774
12:00+11ссз486717 0.0 1018896
15:00+12ссз57575 0.0 10201052
18:00+10ссз37695 0.0 1022509
21:00+7сз26915 0.0 1023105
27 сентября, пн
пн2700:00+6св11965 0.0 102517
03:00+5ссз22955 0.0 102623
06:00+5с22955 0.0 102726
09:00+8ссв25895 0.0 1028219
12:00+13св346720 0.0 1029855
15:00+13св336343 0.0 10291058
18:00+11св258138 0.0 1029234
21:00+10св2586100 0.0 1030129
28 сентября, вт
вт2800:00+10в2381100 0.0 103179
03:00+9в2378100 0.0 103267
06:00+9вюв2477100 0.0 103294
09:00+10вюв258479 0.1 1032210
12:00+13вюв23595 0.0 1033884
15:00+15юв225286 0.0 10331568
18:00+12юв116897 0.0 103336
21:00+10вюв127198 0.0 103335